Location: Waverly
(39.3325°N, 76.6061°W)
Time: 10:36:00
(UTC+00:00)

ARIANE 6 FM1 Upper Stage - Pass Details

Date: 18 December 2025
Orbit: 522 x 610 km, 62.0° (Epoch: 17 January)

Event Time Altitude Azimuth Distance (km) Brightness Sun altitude
Exits shadow 11:23:35 15° 280° (W) 1,492 4.2 -10.9°
Maximum altitude 11:25:32 21° 317° (NW) 1,243 3.9 -10.5°
Drops below altitude 10° 11:28:34 10° 7° (N) 1,772 5.1 -10.0°
Sets 11:31:12 0° 24° (NNE) 2,658 6.1 -9.5°
